SCP
-0 0 0 0 -0 -0 -0 -0 -0 -0 -0 0 0 0 0 0 0 0 0 0 0 0 -0 -0 0 -0 -0 -0 -0 -0 -0 0 0 0 0 0 0 0 0 0 0 0 0 0 0 0 0 0 0
-0 0 0 0 -0 -0 -0 0 0 0 0 0 0 0 0 0 0 0 0 0 0 0 0 0 0 -0 -0 0 0 0 0 0 0 0 0 0 0 0 0 0 0 0 0 0 0 0 0 0 0
0 0 0 0 0 -0 0 0 0 0 0 0 0 0 0 0 0 0 0 0 0 0 0 0 0 0 0 0 0 0 0 0 0 0 0 0 0 0 0 0 0 0 0 0 0 0 0 0 0
0 0 0 0 0 0 0 0 0 0 0 0 0 0 0 0 0 0 0 0 0 0 0 0 0 0 0 0 0 0 0 0 0 0 0 0 0 0 0 0 0 0 0 0 0 0 0 0 0
0 0 0 0 0 0 0 0 0 0 0 0 0 0 0 0 0 0 0 0 0 0 0 0 0 0 0 0 0 0 0 0 0 0 0 0 0 0 0 0 0 0 0 0 0 0 0 0 0
0 0 0 0 0 0 0 0 0 0 0 0 0 0 0 0 0 0 0 0 0 0 0 0 0 0 0 0 0 0 0 0 0 0 0 0 0 0 0 0 0 0 0 0 0 0 0 0 0
0 0 0 0 0 0 0 0 0 0 0 0 0 0 0 0 0 0 0 0 0 0 0 0 0 0 0 0 0 0 0 0 0 0 0 0 0 0 0 0 0 0 0 0 0 0 0 0 0
0 0 0 0 0 0 0 0 0 0 0 0 0 0 0 0 0 0 0 0 0 0 0 0 0 0 0 0 0 0 0 0 0 0 0 0 0 0 0 0 0 0 0 0 0 0 0 0 0
0 0 0 0 0 0 0 0 0 0 0 0 0 0 0 0 0 0 0 0 0 0 0 0 1 0 0 0 0 0 0 0 0 0 0 0 0 0 0 0 0 0 0 0 0 0 0 0 0
0 0 0 0 0 0 0 0 0 0 0 0 0 0 0 0 0 0 0 0 0 0 0 0 0 1 0 0 0 0 0 0 0 0 0 0 0 0 0 0 0 0 0 0 0 0 0 0 0
0 0 0 0 0 0 0 0 0 0 0 0 0 0 0 0 0 0 0 0 0 0 0 0 0 0 0 1 1 1 1 1 1 0 0 0 0 0 0 0 0 0 0 0 0 0 0 0 0
0 0 0 0 0 0 0 0 0 0 0 0 0 0 0 0 0 0 0 0 0 0 0 0 0 0 0 0 0 1 1 1 1 1 1 1 0 0 0 0 0 0 0 0 0 0 0 0 0
0 0 0 0 0 0 0 0 0 0 0 0 0 0 0 0 0 0 0 0 0 0 0 0 0 0 0 0 0 0 0 1 1 1 1 1 0 0 0 0 0 0 0 0 0 0 0 0 0
0 0 0 0 0 0 0 0 0 0 0 0 0 0 0 0 0 0 0 0 0 0 0 0 0 0 0 0 0 0 0 0 0 1 1 1 0 0 0 0 0 0 0 0 0 0 0 0 0
0 0 0 0 0 0 0 0 0 0 0 0 0 0 0 0 0 0 0 0 0 0 0 0 0 0 0 0 0 0 0 0 0 0 0 0 0 0 0 0 0 0 0 0 0 0 0 0 0
0 0 0 0 0 0 0 0 0 0 0 0 0 0 0 0 0 0 0 0 0 0 0 0 0 0 0 0 0 0 0 0 0 0 0 0 0 0 0 0 0 0 0 0 0 0 0 0 0
0 0 0 0 0 0 0 0 0 0 0 0 0 0 0 0 0 0 0 0 0 0 0 0 0 0 0 0 0 0 0 0 0 0 0 0 0 0 1 0 0 0 0 0 0 0 0 0 0
0 0 0 0 0 0 0 -0 -0 0 0 0 0 0 0 0 0 0 0 0 0 0 0 0 0 0 0 0 0 0 0 0 0 0 0 0 0 0 0 1 1 0 0 0 0 0 0 0 0
0 0 0 0 0 0 0 0 0 0 0 0 0 0 0 0 0 0 0 0 0 0 0 0 0 0 0 0 0 0 0 0 0 0 0 0 0 0 0 0 1 1 0 0 0 0 0 0 0
0 0 0 0 0 0 0 0 0 0 0 0 0 0 0 0 0 0 0 0 0 0 0 0 0 0 0 0 0 0 0 0 0 0 0 0 0 0 0 0 1 1 0 0 0 0 0 0 0
0 0 0 0 0 0 0 0 0 0 0 0 0 0 0 0 0 0 0 0 0 0 0 0 0 0 0 0 0 0 0 0 0 0 0 0 0 0 0 0 0 0 1 0 0 0 0 0 0
0 0 0 0 0 0 0 0 0 0 0 0 0 0 0 0 0 0 0 0 0 0 0 0 0 0 0 0 0 0 0 0 0 0 0 0 0 0 0 0 0 0 0 0 0 0 0 0 0
0 0 0 0 0 0 0 0 0 0 0 0 0 0 0 0 0 0 0 0 0 0 0 0 0 0 0 0 0 0 0 0 0 0 0 0 0 0 0 0 0 0 0 1 0 0 0 0 0
0 0 0 0 0 0 0 0 0 0 0 0 0 0 0 0 0 0 0 0 0 0 0 0 0 0 0 0 0 0 0 0 0 0 0 0 0 0 0 0 0 0 0 0 0 0 0 0 0
0 0 0 0 0 0 0 0 0 0 0 0 0 0 0 0 0 0 0 0 0 0 0 0 0 0 0 0 0 0 0 0 0 0 0 0 0 0 0 0 0 0 0 0 0 0 1 0 0
0 0 0 0 0 0 0 0 0 0 0 0 -0 -0 -0 0 0 0 0 0 0 0 0 0 0 0 0 0 0 0 0 0 0 0 0 0 0 0 0 0 0 0 0 0 0 0 0 1 0
0 0 0 0 0 0 0 0 0 0 -0 0 -0 -0 0 0 0 0 0 0 0 0 0 0 0 0 0 0 0 0 0 0 0 0 0 0 0 0 0 0 0 0 0 0 0 0 0 0 1
0 0 0 0 0 0 0 0 0 0 0 0 0 0 0 0 0 0 0 0 0 0 0 0 0 0 0 0 0 0 0 0 0 0 0 0 0 0 0 0 0 0 0 0 0 0 0 0 1
0 0 0 0 0 0 0 0 0 0 0 0 0 0 0 0 0 0 0 0 0 0 0 0 0 0 0 0 0 0 0 0 0 0 0 0 0 0 0 0 0 0 0 0 0 0 0 0 0
0 0 0 0 0 0 0 0 0 0 0 0 0 0 0 0 0 0 0 0 0 0 0 0 0 0 0 0 0 0 0 0 0 0 0 0 0 0 0 0 0 0 0 0 0 0 0 0 0
Wind_Speed_500mb
12 10 12 5 8 7 6 6 2 6 7 2 10 7 6 8 6 5 6 7 7 5 25 42 42 40 34 28 24 24 24 24 24 25 28 28 25 24 26 25 26 21 19 25 28 29 29 27 34
9 6 4 2 8 13 8 6 12 4 8 14 4 7 7 7 8 5 3 4 6 5 21 33 43 40 36 31 27 24 22 22 22 24 25 37 33 31 30 35 25 22 29 30 30 31 31 33 45
6 2 7 5 6 14 4 10 7 4 8 3 4 3 3 3 4 1 5 2 2 6 18 29 36 36 35 33 30 28 25 22 17 22 25 28 28 33 32 26 28 27 34 33 34 33 31 34 45
7 3 2 10 17 8 5 10 2 4 4 9 6 5 6 3 2 6 6 4 4 9 13 23 32 34 35 35 34 30 27 24 18 18 24 23 31 28 29 28 30 29 32 37 37 38 35 36 44
11 4 9 9 18 8 10 5 7 9 6 4 9 4 5 2 3 4 4 9 8 10 14 19 28 33 35 36 34 30 27 25 22 20 21 25 31 31 30 31 35 34 35 36 37 41 42 42 44
11 3 8 15 19 10 7 6 9 15 13 12 8 8 6 8 5 7 7 10 12 14 18 20 24 29 32 33 32 31 29 29 26 24 23 22 27 30 31 34 39 38 37 41 39 41 43 47 49
6 7 7 9 11 9 6 1 13 13 17 14 4 8 5 9 9 8 9 13 15 18 22 24 24 26 28 31 34 34 35 35 32 31 28 26 23 29 34 37 38 42 41 41 45 48 45 52 52
7 5 6 10 8 6 4 3 4 11 12 7 6 9 9 15 13 10 9 9 12 15 20 25 27 26 29 33 37 39 39 40 40 38 35 32 28 30 40 41 41 45 44 44 45 51 54 57 55
9 9 10 7 11 2 2 3 4 8 15 10 12 12 9 14 13 12 13 16 15 16 18 24 27 31 33 37 40 42 44 46 46 43 43 40 38 37 41 49 46 46 47 47 48 48 60 63 61
11 7 7 1 5 4 6 8 9 10 16 19 20 22 28 28 29 28 25 20 22 24 27 28 31 32 36 39 42 46 48 51 54 53 52 51 47 42 44 50 54 53 50 50 48 48 60 65 67
6 8 1 4 8 7 10 12 12 17 22 34 25 18 19 23 30 34 33 31 31 32 32 33 35 39 43 46 46 51 52 56 59 60 59 59 57 53 51 51 57 58 57 58 54 54 59 72 70
8 7 6 2 4 5 10 10 17 36 34 12 19 29 29 29 24 23 29 32 33 38 42 42 41 43 44 46 51 53 59 63 64 67 69 68 70 70 67 62 56 64 68 67 63 59 67 69 72
11 5 7 9 14 19 22 31 30 44 48 36 35 36 39 29 27 27 31 35 40 47 48 51 51 52 53 54 54 56 59 62 71 71 72 76 81 84 80 77 74 69 69 69 67 61 73 77 76
4 12 19 12 10 13 16 20 7 7 8 11 20 24 26 22 20 33 42 53 53 45 40 46 54 54 57 61 65 66 65 64 61 66 63 76 80 86 92 93 88 81 75 69 72 67 84 82 81
4 12 12 3 7 6 21 20 21 24 21 23 27 28 28 28 33 41 43 31 24 20 22 23 30 37 45 51 59 66 69 66 61 59 62 66 70 81 85 94 107 86 83 88 72 73 85 83 84
4 5 7 4 10 6 9 20 4 5 11 20 27 30 34 43 37 35 20 20 19 23 26 28 36 40 42 43 45 49 51 54 60 63 61 52 52 60 65 91 94 96 89 92 84 91 93 88 93
1 7 7 6 6 6 4 27 8 5 19 49 51 54 46 39 32 18 19 19 21 20 21 23 28 31 41 43 43 46 48 51 52 53 54 54 53 53 63 62 73 83 96 103 110 105 94 101 98
6 7 7 12 3 6 20 49 56 45 40 52 57 47 37 26 11 14 12 15 17 21 27 31 33 35 39 46 48 49 50 49 50 52 51 48 49 48 50 62 67 67 77 94 102 104 115 100 107
2 5 16 11 3 12 15 37 53 55 43 45 39 25 18 12 9 9 6 7 15 26 34 40 43 44 46 50 51 49 50 50 50 51 50 49 48 53 61 62 59 65 72 74 83 95 102 84 105
4 10 11 14 3 11 18 47 51 19 7 8 7 9 12 11 11 11 9 12 17 26 38 49 56 58 55 52 49 47 50 56 60 60 63 62 59 56 56 55 57 63 67 71 84 99 85 112 93
9 11 6 9 18 10 25 22 13 6 8 6 9 10 14 13 11 11 10 8 14 32 63 59 55 55 55 56 59 62 67 75 77 79 82 79 74 70 69 68 67 63 65 71 70 91 112 95 110
9 1 4 13 15 9 12 11 19 3 13 14 17 20 20 21 17 14 13 17 23 50 60 49 53 61 70 73 83 89 94 88 87 79 91 99 98 98 87 83 80 78 73 72 74 67 79 131 132
4 5 7 6 2 7 5 5 14 5 4 5 17 29 26 25 23 21 24 30 37 68 56 55 62 67 73 80 86 92 97 100 98 89 94 98 108 109 103 96 92 88 84 83 80 77 73 95 92
5 5 3 3 3 6 3 3 11 8 5 4 5 18 29 25 26 25 31 45 51 76 67 70 67 68 70 74 78 86 89 85 83 78 82 85 88 97 101 98 98 102 95 90 90 90 82 69 83
5 5 6 5 4 5 3 8 23 12 11 9 9 12 20 23 28 32 34 43 78 70 71 70 69 70 69 73 74 74 76 73 75 78 78 76 74 73 77 79 94 95 100 94 89 89 90 88 81
8 4 4 10 7 9 2 14 9 4 5 15 23 25 36 44 30 24 51 69 63 66 66 67 66 64 62 61 66 67 66 72 75 77 73 76 77 77 72 69 70 72 81 80 87 88 89 84 87
10 8 5 6 3 6 7 13 28 10 20 28 32 30 25 20 28 44 69 61 62 63 69 66 65 64 62 65 63 69 73 72 75 79 78 76 77 75 71 66 63 63 63 72 76 85 92 94 89
6 11 3 2 8 12 11 12 21 11 13 9 7 11 16 22 28 55 62 59 58 64 66 64 63 69 68 62 63 71 67 70 72 70 75 77 77 75 68 68 68 67 64 67 73 79 84 87 94
9 7 5 3 5 8 11 12 13 16 9 11 5 13 23 27 51 61 57 58 62 64 61 65 66 73 69 69 64 69 69 68 73 75 77 76 79 77 72 72 70 67 72 77 78 82 89 92 94
3 4 14 9 9 6 6 24 9 12 7 6 15 23 46 52 57 54 56 58 63 59 64 68 84 70 73 69 70 70 68 65 69 70 70 72 71 71 69 72 72 73 69 76 78 82 94 88 95
Wind_Direction_500mb
284 316 338 337 245 251 236 198 285 193 188 123 306 258 342 27 352 3 351 29 0 190 185 187 193 201 206 215 217 209 219 231 241 235 224 207 207 207 209 207 209 221 194 179 181 171 171 173 156
262 295 321 233 245 234 204 158 193 173 331 311 236 231 243 95 48 61 78 277 15 169 183 188 194 202 209 212 219 233 237 246 252 238 217 206 206 208 213 223 197 190 175 186 184 176 168 163 146
251 232 253 244 230 242 222 181 150 328 337 324 203 41 8 68 37 74 287 253 84 195 184 191 194 202 211 216 224 234 245 250 245 226 199 191 195 198 210 199 188 184 185 190 191 184 186 164 152
171 187 107 246 228 230 251 172 185 297 167 24 338 185 102 169 268 284 284 227 167 195 196 200 198 199 211 220 231 241 246 241 243 229 230 216 206 198 204 199 184 192 189 189 196 188 166 168 163
177 207 221 235 247 249 223 232 270 271 297 318 330 195 173 261 281 301 252 185 184 197 201 206 210 209 214 221 233 240 242 240 250 249 242 231 207 200 198 205 185 198 195 192 196 188 174 178 170
175 226 227 234 230 228 235 219 261 251 261 263 260 267 189 203 235 256 234 213 207 207 204 207 213 221 227 233 236 240 240 241 245 251 256 249 228 219 207 210 195 199 202 199 196 183 184 182 174
212 209 252 248 249 256 195 252 231 248 249 239 292 261 167 195 239 246 241 232 226 216 210 210 216 218 223 234 241 247 250 245 244 246 250 256 252 212 218 217 209 201 209 209 199 184 187 179 178
193 242 222 224 222 254 139 269 241 242 252 235 203 239 216 210 233 261 263 245 238 230 224 225 226 228 228 233 238 243 246 249 252 254 253 252 251 230 221 223 220 209 209 210 208 192 187 184 185
162 233 249 237 196 132 173 289 216 247 260 248 224 234 246 237 247 269 274 270 258 253 240 233 238 237 234 237 242 244 246 249 253 251 251 248 244 233 225 221 221 213 217 216 218 200 193 190 193
218 242 237 175 204 238 224 259 278 269 241 245 242 238 252 253 264 267 260 257 255 250 248 248 247 249 248 246 247 249 248 247 245 248 248 244 239 225 224 225 220 213 214 223 223 214 198 195 201
183 258 61 231 247 258 267 267 250 259 259 248 253 238 234 248 267 269 265 262 260 255 252 252 250 246 248 248 247 249 252 252 249 246 248 246 243 239 232 229 226 217 216 215 221 223 211 201 205
246 247 240 264 215 262 260 276 264 245 250 260 246 257 253 261 263 262 262 264 267 267 265 258 255 252 250 249 250 253 251 251 253 253 249 249 242 241 239 236 226 226 216 215 215 216 213 208 211
245 295 262 267 273 271 270 263 266 266 267 258 254 257 271 259 258 258 264 271 279 278 267 258 257 257 258 257 256 256 257 255 254 250 254 251 250 246 241 238 238 232 221 216 217 216 214 211 214
341 291 282 292 293 289 290 276 300 239 315 242 238 244 253 240 252 270 277 282 281 281 275 260 256 257 256 257 259 260 259 259 260 255 254 257 259 258 249 240 236 234 228 221 217 217 215 213 213
279 295 278 272 330 300 314 266 229 261 263 255 254 244 235 245 275 284 287 272 268 278 282 281 270 265 265 264 262 262 264 265 262 260 260 252 250 253 255 247 238 239 240 228 224 216 220 219 216
247 244 292 82 340 16 351 279 303 229 231 246 244 245 258 275 278 282 265 266 269 283 288 284 278 272 271 273 271 268 267 268 270 268 264 257 255 256 253 245 250 241 241 238 225 221 221 219 217
223 267 256 277 47 318 273 286 264 206 261 276 274 272 273 279 278 248 248 265 276 278 287 294 287 275 264 267 268 266 266 265 264 264 263 258 256 255 254 256 250 240 244 234 229 217 224 218 216
206 267 253 265 51 266 264 267 284 276 271 276 279 277 271 264 214 208 236 266 277 288 298 302 299 288 269 257 258 263 265 265 265 265 264 260 254 250 252 256 259 254 242 227 221 218 218 225 220
9 273 276 274 334 297 254 275 280 294 284 271 275 259 234 211 164 183 221 288 293 295 295 292 287 283 273 262 261 261 263 262 261 262 264 266 265 265 262 258 255 258 252 253 237 230 221 217 218
295 299 279 284 291 311 309 292 282 301 254 261 298 195 180 159 171 195 234 290 311 315 311 297 286 278 268 261 261 260 263 263 260 258 257 257 258 259 262 265 262 255 256 254 239 227 218 210 217
243 248 290 287 320 261 308 275 274 201 270 238 214 195 182 191 195 206 241 265 302 319 323 304 286 271 265 264 264 265 274 274 268 259 259 259 261 260 259 259 259 258 257 253 246 231 224 208 216
282 52 301 310 337 296 10 287 290 288 278 229 210 209 213 209 212 221 237 250 287 322 320 301 287 278 272 270 273 274 277 277 273 268 270 265 262 266 262 255 254 252 252 252 255 247 227 212 217
344 1 311 305 250 320 106 223 275 310 240 224 208 214 221 222 227 243 250 262 279 321 313 301 296 286 279 276 276 278 278 279 278 272 268 267 265 263 263 254 249 248 247 246 248 247 244 252 217
117 274 258 135 171 242 98 267 272 229 163 172 196 214 225 221 228 259 274 276 279 313 311 309 302 298 293 287 282 279 277 276 273 268 266 266 265 264 258 255 250 247 246 243 242 246 247 247 237
199 280 293 271 236 293 105 266 253 252 211 224 205 200 198 216 264 275 291 304 305 310 310 308 306 302 300 294 289 284 280 276 272 271 268 265 261 257 256 251 249 246 244 244 242 241 243 244 244
171 196 246 277 287 314 168 241 245 249 281 236 239 253 252 250 257 289 313 312 309 311 310 309 306 300 301 297 291 285 279 275 273 271 267 263 262 261 256 249 241 237 239 237 240 239 239 236 239
143 200 90 106 100 273 238 264 276 272 246 242 253 241 250 254 278 312 322 314 315 314 313 311 309 307 305 301 294 288 282 278 275 275 271 266 264 258 254 245 237 235 232 232 231 239 237 233 231
265 137 159 177 277 274 234 261 251 250 223 192 200 214 238 253 285 315 318 316 315 316 316 316 312 312 310 301 297 296 289 281 277 274 272 271 269 258 249 245 241 239 236 234 231 232 233 230 228
157 203 195 303 230 267 300 254 215 235 198 197 237 266 261 273 310 316 314 319 320 322 320 317 317 319 313 313 308 303 296 290 285 281 276 268 265 260 252 250 246 241 246 238 234 228 225 227 226
295 248 192 230 206 245 298 272 189 247 255 266 280 285 301 296 309 316 321 321 326 322 324 323 326 319 320 316 314 307 301 296 291 286 279 275 268 263 252 247 245 243 244 233 226 225 220 221 223
Wind_Speed_850mb
12 10 12 5 8 7 6 6 2 6 7 2 10 7 6 8 6 5 6 7 7 5 25 42 42 40 34 28 24 24 24 24 24 25 28 28 25 24 26 25 26 21 19 25 28 29 29 27 34
9 6 4 2 8 13 8 6 12 4 8 14 4 7 7 7 8 5 3 4 6 5 21 33 43 40 36 31 27 24 22 22 22 24 25 37 33 31 30 35 25 22 29 30 30 31 31 33 45
6 2 7 5 6 14 4 10 7 4 8 3 4 3 3 3 4 1 5 2 2 6 18 29 36 36 35 33 30 28 25 22 17 22 25 28 28 33 32 26 28 27 34 33 34 33 31 34 45
7 3 2 10 17 8 5 10 2 4 4 9 6 5 6 3 2 6 6 4 4 9 13 23 32 34 35 35 34 30 27 24 18 18 24 23 31 28 29 28 30 29 32 37 37 38 35 36 44
11 4 9 9 18 8 10 5 7 9 6 4 9 4 5 2 3 4 4 9 8 10 14 19 28 33 35 36 34 30 27 25 22 20 21 25 31 31 30 31 35 34 35 36 37 41 42 42 44
11 3 8 15 19 10 7 6 9 15 13 12 8 8 6 8 5 7 7 10 12 14 18 20 24 29 32 33 32 31 29 29 26 24 23 22 27 30 31 34 39 38 37 41 39 41 43 47 49
6 7 7 9 11 9 6 1 13 13 17 14 4 8 5 9 9 8 9 13 15 18 22 24 24 26 28 31 34 34 35 35 32 31 28 26 23 29 34 37 38 42 41 41 45 48 45 52 52
7 5 6 10 8 6 4 3 4 11 12 7 6 9 9 15 13 10 9 9 12 15 20 25 27 26 29 33 37 39 39 40 40 38 35 32 28 30 40 41 41 45 44 44 45 51 54 57 55
9 9 10 7 11 2 2 3 4 8 15 10 12 12 9 14 13 12 13 16 15 16 18 24 27 31 33 37 40 42 44 46 46 43 43 40 38 37 41 49 46 46 47 47 48 48 60 63 61
11 7 7 1 5 4 6 8 9 10 16 19 20 22 28 28 29 28 25 20 22 24 27 28 31 32 36 39 42 46 48 51 54 53 52 51 47 42 44 50 54 53 50 50 48 48 60 65 67
6 8 1 4 8 7 10 12 12 17 22 34 25 18 19 23 30 34 33 31 31 32 32 33 35 39 43 46 46 51 52 56 59 60 59 59 57 53 51 51 57 58 57 58 54 54 59 72 70
8 7 6 2 4 5 10 10 17 36 34 12 19 29 29 29 24 23 29 32 33 38 42 42 41 43 44 46 51 53 59 63 64 67 69 68 70 70 67 62 56 64 68 67 63 59 67 69 72
11 5 7 9 14 19 22 31 30 44 48 36 35 36 39 29 27 27 31 35 40 47 48 51 51 52 53 54 54 56 59 62 71 71 72 76 81 84 80 77 74 69 69 69 67 61 73 77 76
4 12 19 12 10 13 16 20 7 7 8 11 20 24 26 22 20 33 42 53 53 45 40 46 54 54 57 61 65 66 65 64 61 66 63 76 80 86 92 93 88 81 75 69 72 67 84 82 81
4 12 12 3 7 6 21 20 21 24 21 23 27 28 28 28 33 41 43 31 24 20 22 23 30 37 45 51 59 66 69 66 61 59 62 66 70 81 85 94 107 86 83 88 72 73 85 83 84
4 5 7 4 10 6 9 20 4 5 11 20 27 30 34 43 37 35 20 20 19 23 26 28 36 40 42 43 45 49 51 54 60 63 61 52 52 60 65 91 94 96 89 92 84 91 93 88 93
1 7 7 6 6 6 4 27 8 5 19 49 51 54 46 39 32 18 19 19 21 20 21 23 28 31 41 43 43 46 48 51 52 53 54 54 53 53 63 62 73 83 96 103 110 105 94 101 98
6 7 7 12 3 6 20 49 56 45 40 52 57 47 37 26 11 14 12 15 17 21 27 31 33 35 39 46 48 49 50 49 50 52 51 48 49 48 50 62 67 67 77 94 102 104 115 100 107
2 5 16 11 3 12 15 37 53 55 43 45 39 25 18 12 9 9 6 7 15 26 34 40 43 44 46 50 51 49 50 50 50 51 50 49 48 53 61 62 59 65 72 74 83 95 102 84 105
4 10 11 14 3 11 18 47 51 19 7 8 7 9 12 11 11 11 9 12 17 26 38 49 56 58 55 52 49 47 50 56 60 60 63 62 59 56 56 55 57 63 67 71 84 99 85 112 93
9 11 6 9 18 10 25 22 13 6 8 6 9 10 14 13 11 11 10 8 14 32 63 59 55 55 55 56 59 62 67 75 77 79 82 79 74 70 69 68 67 63 65 71 70 91 112 95 110
9 1 4 13 15 9 12 11 19 3 13 14 17 20 20 21 17 14 13 17 23 50 60 49 53 61 70 73 83 89 94 88 87 79 91 99 98 98 87 83 80 78 73 72 74 67 79 131 132
4 5 7 6 2 7 5 5 14 5 4 5 17 29 26 25 23 21 24 30 37 68 56 55 62 67 73 80 86 92 97 100 98 89 94 98 108 109 103 96 92 88 84 83 80 77 73 95 92
5 5 3 3 3 6 3 3 11 8 5 4 5 18 29 25 26 25 31 45 51 76 67 70 67 68 70 74 78 86 89 85 83 78 82 85 88 97 101 98 98 102 95 90 90 90 82 69 83
5 5 6 5 4 5 3 8 23 12 11 9 9 12 20 23 28 32 34 43 78 70 71 70 69 70 69 73 74 74 76 73 75 78 78 76 74 73 77 79 94 95 100 94 89 89 90 88 81
8 4 4 10 7 9 2 14 9 4 5 15 23 25 36 44 30 24 51 69 63 66 66 67 66 64 62 61 66 67 66 72 75 77 73 76 77 77 72 69 70 72 81 80 87 88 89 84 87
10 8 5 6 3 6 7 13 28 10 20 28 32 30 25 20 28 44 69 61 62 63 69 66 65 64 62 65 63 69 73 72 75 79 78 76 77 75 71 66 63 63 63 72 76 85 92 94 89
6 11 3 2 8 12 11 12 21 11 13 9 7 11 16 22 28 55 62 59 58 64 66 64 63 69 68 62 63 71 67 70 72 70 75 77 77 75 68 68 68 67 64 67 73 79 84 87 94
9 7 5 3 5 8 11 12 13 16 9 11 5 13 23 27 51 61 57 58 62 64 61 65 66 73 69 69 64 69 69 68 73 75 77 76 79 77 72 72 70 67 72 77 78 82 89 92 94
3 4 14 9 9 6 6 24 9 12 7 6 15 23 46 52 57 54 56 58 63 59 64 68 84 70 73 69 70 70 68 65 69 70 70 72 71 71 69 72 72 73 69 76 78 82 94 88 95
Wind_Direction_850mb
284 316 338 337 245 251 236 198 285 193 188 123 306 258 342 27 352 3 351 29 0 190 185 187 193 201 206 215 217 209 219 231 241 235 224 207 207 207 209 207 209 221 194 179 181 171 171 173 156
262 295 321 233 245 234 204 158 193 173 331 311 236 231 243 95 48 61 78 277 15 169 183 188 194 202 209 212 219 233 237 246 252 238 217 206 206 208 213 223 197 190 175 186 184 176 168 163 146
251 232 253 244 230 242 222 181 150 328 337 324 203 41 8 68 37 74 287 253 84 195 184 191 194 202 211 216 224 234 245 250 245 226 199 191 195 198 210 199 188 184 185 190 191 184 186 164 152
171 187 107 246 228 230 251 172 185 297 167 24 338 185 102 169 268 284 284 227 167 195 196 200 198 199 211 220 231 241 246 241 243 229 230 216 206 198 204 199 184 192 189 189 196 188 166 168 163
177 207 221 235 247 249 223 232 270 271 297 318 330 195 173 261 281 301 252 185 184 197 201 206 210 209 214 221 233 240 242 240 250 249 242 231 207 200 198 205 185 198 195 192 196 188 174 178 170
175 226 227 234 230 228 235 219 261 251 261 263 260 267 189 203 235 256 234 213 207 207 204 207 213 221 227 233 236 240 240 241 245 251 256 249 228 219 207 210 195 199 202 199 196 183 184 182 174
212 209 252 248 249 256 195 252 231 248 249 239 292 261 167 195 239 246 241 232 226 216 210 210 216 218 223 234 241 247 250 245 244 246 250 256 252 212 218 217 209 201 209 209 199 184 187 179 178
193 242 222 224 222 254 139 269 241 242 252 235 203 239 216 210 233 261 263 245 238 230 224 225 226 228 228 233 238 243 246 249 252 254 253 252 251 230 221 223 220 209 209 210 208 192 187 184 185
162 233 249 237 196 132 173 289 216 247 260 248 224 234 246 237 247 269 274 270 258 253 240 233 238 237 234 237 242 244 246 249 253 251 251 248 244 233 225 221 221 213 217 216 218 200 193 190 193
218 242 237 175 204 238 224 259 278 269 241 245 242 238 252 253 264 267 260 257 255 250 248 248 247 249 248 246 247 249 248 247 245 248 248 244 239 225 224 225 220 213 214 223 223 214 198 195 201
183 258 61 231 247 258 267 267 250 259 259 248 253 238 234 248 267 269 265 262 260 255 252 252 250 246 248 248 247 249 252 252 249 246 248 246 243 239 232 229 226 217 216 215 221 223 211 201 205
246 247 240 264 215 262 260 276 264 245 250 260 246 257 253 261 263 262 262 264 267 267 265 258 255 252 250 249 250 253 251 251 253 253 249 249 242 241 239 236 226 226 216 215 215 216 213 208 211
245 295 262 267 273 271 270 263 266 266 267 258 254 257 271 259 258 258 264 271 279 278 267 258 257 257 258 257 256 256 257 255 254 250 254 251 250 246 241 238 238 232 221 216 217 216 214 211 214
341 291 282 292 293 289 290 276 300 239 315 242 238 244 253 240 252 270 277 282 281 281 275 260 256 257 256 257 259 260 259 259 260 255 254 257 259 258 249 240 236 234 228 221 217 217 215 213 213
279 295 278 272 330 300 314 266 229 261 263 255 254 244 235 245 275 284 287 272 268 278 282 281 270 265 265 264 262 262 264 265 262 260 260 252 250 253 255 247 238 239 240 228 224 216 220 219 216
247 244 292 82 340 16 351 279 303 229 231 246 244 245 258 275 278 282 265 266 269 283 288 284 278 272 271 273 271 268 267 268 270 268 264 257 255 256 253 245 250 241 241 238 225 221 221 219 217
223 267 256 277 47 318 273 286 264 206 261 276 274 272 273 279 278 248 248 265 276 278 287 294 287 275 264 267 268 266 266 265 264 264 263 258 256 255 254 256 250 240 244 234 229 217 224 218 216
206 267 253 265 51 266 264 267 284 276 271 276 279 277 271 264 214 208 236 266 277 288 298 302 299 288 269 257 258 263 265 265 265 265 264 260 254 250 252 256 259 254 242 227 221 218 218 225 220
9 273 276 274 334 297 254 275 280 294 284 271 275 259 234 211 164 183 221 288 293 295 295 292 287 283 273 262 261 261 263 262 261 262 264 266 265 265 262 258 255 258 252 253 237 230 221 217 218
295 299 279 284 291 311 309 292 282 301 254 261 298 195 180 159 171 195 234 290 311 315 311 297 286 278 268 261 261 260 263 263 260 258 257 257 258 259 262 265 262 255 256 254 239 227 218 210 217
243 248 290 287 320 261 308 275 274 201 270 238 214 195 182 191 195 206 241 265 302 319 323 304 286 271 265 264 264 265 274 274 268 259 259 259 261 260 259 259 259 258 257 253 246 231 224 208 216
282 52 301 310 337 296 10 287 290 288 278 229 210 209 213 209 212 221 237 250 287 322 320 301 287 278 272 270 273 274 277 277 273 268 270 265 262 266 262 255 254 252 252 252 255 247 227 212 217
344 1 311 305 250 320 106 223 275 310 240 224 208 214 221 222 227 243 250 262 279 321 313 301 296 286 279 276 276 278 278 279 278 272 268 267 265 263 263 254 249 248 247 246 248 247 244 252 217
117 274 258 135 171 242 98 267 272 229 163 172 196 214 225 221 228 259 274 276 279 313 311 309 302 298 293 287 282 279 277 276 273 268 266 266 265 264 258 255 250 247 246 243 242 246 247 247 237
199 280 293 271 236 293 105 266 253 252 211 224 205 200 198 216 264 275 291 304 305 310 310 308 306 302 300 294 289 284 280 276 272 271 268 265 261 257 256 251 249 246 244 244 242 241 243 244 244
171 196 246 277 287 314 168 241 245 249 281 236 239 253 252 250 257 289 313 312 309 311 310 309 306 300 301 297 291 285 279 275 273 271 267 263 262 261 256 249 241 237 239 237 240 239 239 236 239
143 200 90 106 100 273 238 264 276 272 246 242 253 241 250 254 278 312 322 314 315 314 313 311 309 307 305 301 294 288 282 278 275 275 271 266 264 258 254 245 237 235 232 232 231 239 237 233 231
265 137 159 177 277 274 234 261 251 250 223 192 200 214 238 253 285 315 318 316 315 316 316 316 312 312 310 301 297 296 289 281 277 274 272 271 269 258 249 245 241 239 236 234 231 232 233 230 228
157 203 195 303 230 267 300 254 215 235 198 197 237 266 261 273 310 316 314 319 320 322 320 317 317 319 313 313 308 303 296 290 285 281 276 268 265 260 252 250 246 241 246 238 234 228 225 227 226
295 248 192 230 206 245 298 272 189 247 255 266 280 285 301 296 309 316 321 321 326 322 324 323 326 319 320 316 314 307 301 296 291 286 279 275 268 263 252 247 245 243 244 233 226 225 220 221 223